Lihue, HI

11:29 PM HST on May 22, 2018 (GMT -1000)
Lihue

Weather History for PHLI - May, 2011

Change the Weather History Date:

Monday, May 9, 2011

  Actual Average Record
Temperature  
Mean Temperature 75 °F 75 °F  
Max Temperature 78 °F 81 °F 86 °F (1981)
Min Temperature 72 °F 70 °F 60 °F (1987)
Degree Days  
Heating Degree Days 0 0  
Month to date heating degree days 0 0  
Since 1 July heating degree days 0 0  
Cooling Degree Days 10 10  
Month to date cooling degree days 96 90  
Year to date cooling degree days 1176 994  
Growing Degree Days 23 (Base 50)    
Moisture  
Dew Point 70 °F    
Average Humidity 88    
Maximum Humidity 93    
Minimum Humidity 82    
Precipitation  
Precipitation 1.23 in 0.08 in 4.99 in (1977)
Month to date precipitation 6.83 0.71  
Year to date precipitation 24.43 14.48  
Snow  
Snow 0.00 in - - ()
Month to date snowfall 0.0  
Since 1 July snowfall 0.0  
Snow Depth 0.00 in    
Sea Level Pressure  
Sea Level Pressure 30.02 in    
Wind  
Wind Speed 12 mph (SE)    
Max Wind Speed 22 mph    
Max Gust Speed 26 mph    
Visibility 8 miles    
Events Rain , Thunderstorm    
T = Trace of Precipitation, MM = Missing Value Source: NWS Daily Summary

Daily Weather History Graph

Daily Weather History Graph

Search for Another Location

Airport or City:

Astronomy

May. 09, 2011 Rise Set
Actual Time 6:00 AM HST 7:06 PM HST
Civil Twilight 5:37 AM HST 7:30 PM HST
Nautical Twilight 5:09 AM HST 7:58 PM HST
Astronomical Twilight 4:40 AM HST 8:27 PM HST
Moon 11:36 AM HST (5/9) 12:04 AM HST (5/9)
Length of Visible Light 13h 53m
Length of Day
13h 05m
Waxing Crescent, 40% of the Moon is Illuminated
May 9
Waxing Crescent
May 10
First Quarter
May 17
Full
May 24
Last Quarter
Jun 1
New

Hourly Weather History & Observations

Time (HST) Temp. Dew Point Humidity Pressure Visibility Wind Dir Wind Speed Gust Speed Precip Events Conditions
12:16 AM 73.4 °F 69.8 °F 88% 30.04 in 7.0 mi East 13.8 mph - 0.04 in Rain Light Rain
12:45 AM 73.4 °F 69.8 °F 88% 30.04 in 9.0 mi ESE 13.8 mph - 0.05 in Rain Light Rain
12:53 AM 72.5 °F 70.0 °F 92% 30.03 in 7.0 mi SE 11.5 mph - 0.05 in Rain Rain
1:10 AM 73.4 °F 69.8 °F 88% 30.03 in 5.0 mi SE 11.5 mph - 0.03 in Rain Rain
1:50 AM 73.4 °F 69.8 °F 88% 30.02 in 4.0 mi East 6.9 mph - 0.11 in Rain Heavy Rain
1:53 AM 72.0 °F 67.5 °F 86% 30.01 in 4.0 mi East 9.2 mph - 0.12 in Rain Heavy Rain
2:53 AM 72.9 °F 70.0 °F 91% 29.99 in 5.0 mi East 12.7 mph - 0.18 in Rain Rain
3:53 AM 72.1 °F 68.7 °F 89% 30.00 in 6.0 mi SE 11.5 mph - 0.18 in Rain Rain
4:53 AM 72.0 °F 68.4 °F 88% 29.99 in 9.0 mi ESE 15.0 mph - 0.22 in Rain Light Rain
5:13 AM 73.4 °F 69.8 °F 88% 30.00 in 10.0 mi ESE 18.4 mph - 0.00 in   Mostly Cloudy
5:53 AM 72.9 °F 69.8 °F 90% 30.00 in 10.0 mi ESE 20.7 mph - 0.00 in   Overcast
6:53 AM 73.9 °F 69.8 °F 87% 30.02 in 10.0 mi SE 18.4 mph - N/A   Mostly Cloudy
7:53 AM 73.4 °F 69.8 °F 88% 30.03 in 9.0 mi ESE 17.3 mph - N/A   Mostly Cloudy
7:58 AM 73.4 °F 69.8 °F 88% 30.04 in 10.0 mi ESE 16.1 mph - N/A   Mostly Cloudy
8:53 AM 75.2 °F 69.1 °F 81% 30.04 in 10.0 mi ESE 12.7 mph - N/A   Overcast
9:53 AM 75.2 °F 69.1 °F 81% 30.04 in 10.0 mi ESE 10.4 mph - N/A   Overcast
10:53 AM 75.0 °F 70.0 °F 84% 30.04 in 10.0 mi SE 12.7 mph - N/A   Mostly Cloudy
11:53 AM 75.9 °F 70.0 °F 82% 30.03 in 10.0 mi SE 11.5 mph - N/A   Scattered Clouds
12:53 PM 75.0 °F 71.1 °F 87% 30.02 in 9.0 mi SE 5.8 mph - 0.00 in Rain Light Rain
1:06 PM 75.2 °F 71.6 °F 89% 30.03 in 1.2 mi South 20.7 mph 26.5 mph 0.00 in Rain Light Rain
1:09 PM 75.2 °F 69.8 °F 83% 30.03 in 0.5 mi SSE 6.9 mph 26.5 mph 0.14 in Rain Heavy Rain
1:18 PM 71.6 °F 69.8 °F 94% 30.02 in 1.2 mi SSE 8.1 mph - 0.39 in Rain , Thunderstorm Light Thunderstorms and Rain
1:25 PM 71.6 °F 69.8 °F 94% 30.03 in 6.0 mi South 6.9 mph - 0.39 in Rain , Thunderstorm Light Thunderstorms and Rain
1:28 PM 71.6 °F 69.8 °F 94% 30.03 in 6.0 mi South 5.8 mph - 0.39 in Rain , Thunderstorm Light Thunderstorms and Rain
1:44 PM 71.6 °F 69.8 °F 94% 30.02 in 2.5 mi SSE 10.4 mph - 0.41 in Rain Heavy Rain
1:53 PM 71.6 °F 70.0 °F 95% 30.02 in 2.0 mi SSE 5.8 mph - 0.48 in Rain Rain
2:02 PM 71.6 °F 69.8 °F 94% 30.01 in 5.0 mi Calm Calm - 0.02 in Rain Light Rain
2:11 PM 71.6 °F 69.8 °F 94% 30.01 in 8.0 mi South 3.5 mph - 0.02 in Rain Light Rain
2:34 PM 71.6 °F 69.8 °F 94% 30.02 in 10.0 mi SW 3.5 mph - 0.02 in   Mostly Cloudy
2:53 PM 71.6 °F 70.0 °F 95% 30.01 in 10.0 mi Calm Calm - 0.02 in   Scattered Clouds
3:53 PM 75.2 °F 69.8 °F 83% 30.00 in 10.0 mi Calm Calm - 0.00 in   Scattered Clouds
4:53 PM 75.2 °F 69.1 °F 81% 29.99 in 10.0 mi WNW 3.5 mph - 0.00 in   Mostly Cloudy
5:53 PM 75.2 °F 70.0 °F 84% 30.00 in 10.0 mi Calm Calm - N/A   Overcast
6:53 PM 75.2 °F 70.0 °F 84% 30.01 in 10.0 mi WNW 3.5 mph - 0.00 in   Partly Cloudy
7:53 PM 73.4 °F 70.0 °F 89% 30.02 in 10.0 mi Calm Calm - N/A   Mostly Cloudy
8:53 PM 73.4 °F 70.0 °F 89% 30.04 in 10.0 mi Calm Calm - 0.01 in Rain Light Rain
9:53 PM 73.4 °F 71.1 °F 92% 30.04 in 10.0 mi WNW 3.5 mph - 0.00 in   Scattered Clouds
10:53 PM 73.4 °F 70.0 °F 89% 30.05 in 10.0 mi West 3.5 mph - N/A   Mostly Cloudy
11:53 PM - - N/A% 30.05 in 10.0 mi WNW 3.5 mph - N/A   Scattered Clouds